Location: Cisewo
(53.3833°N, 14.9000°E)
Time: 10:26:51
(UTC+00:00)

Cosmos 2227 Rocket - Pass Details

Date: 18 April 2021
Orbit: 840 x 843 km, 71.0° (Epoch: 14 May)

Event Time Altitude Azimuth Distance (km) Brightness Sun altitude
Exits shadow 21:38:55 11° 230° (SW) 2,394 4.4 -23.2°
Maximum altitude 21:44:17 56° 309° (NW) 997 2.8 -23.5°
Drops below altitude 10° 21:49:52 10° 27° (NNE) 2,473 5.2 -23.8°
Sets 21:52:23 0° 32° (NNE) 3,411 5.9 -23.9°
